(261) Prymno
ephemeris date magn radius delta ra dec elong phase
Today9 May 202514.92.529 AU3.303 AU00h57m+03°09'33.9°12.9°
Opposition8 Nov 202512.52.410 AU1.421 AU03h03m+12°20'175.2°2.0°
(261) Prymno - 2025-05-09
astro.vanbuitenen.nl


 
-1 year
-1 month
-1 day
Now
+1 day
+1 month
+1 year

The interactive orbit chart above shows the body's path through the solar system and its position at the given date. Green and blue lines are shown perpendicular to the ecliptic plane: Green if the path is above the ecliptic plane, blue if it is below. (Left-click and drag to rotate the view; Right-click and drag to move the view; Use scroll wheel to zoom in our out.)

The orbital elements of Prymno are:

            e (Eccentricity)                : 0.0903629
            a (Semimajor axis)              : 2.3309122
            i (Inclination)                 : 3.63399
            Ω (Longitude of ascending node) : 96.57787
            ω (Argument of perihelion)      : 66.65530
            M (Mean anomaly)                : 200.81975
            Epoch                           : 2025 May 05

            L (Longitude of perihelion)     : 163.19118
            B (Latitude of perihelion)      : 3.33615
            P (Orbital period in years)     : 3.56            
        

The light curve chart below shows the estimated development of the minor planet's magnitude.


The all-sky chart below shows the path of the minor planet over the same period as the light curve. The current position is marked yellow.





The following chart shows the path of the minor planet in the next few days. The field of view is optimized for (~10x50) binoculars and finderscopes. A more printer-friendly version of the same chart can be found below.




Ephemerides:
Date       Time       RA (2000)    DEC (2000)    delta   radius  elong  phase   PA    magn
2025-05-09 00:00 UT   00 57 41.3   +03 09 34     3.303    2.529   33.9   12.9   243   14.9 
2025-05-09 05:57 UT   00 58 04.8   +03 11 54     3.301    2.529   34.0   12.9   243   14.9 
2025-05-10 00:00 UT   00 59 15.9   +03 18 59     3.296    2.528   34.4   13.0   243   14.9 
2025-05-11 00:00 UT   01 00 50.4   +03 28 22     3.288    2.528   35.0   13.2   243   14.9 
2025-05-12 00:00 UT   01 02 24.7   +03 37 42     3.281    2.528   35.5   13.4   244   14.9 
2025-05-13 00:00 UT   01 03 59.0   +03 46 60     3.273    2.527   36.0   13.6   244   14.9 
2025-05-14 00:00 UT   01 05 33.1   +03 56 15     3.266    2.527   36.6   13.8   244   14.9 
2025-05-15 00:00 UT   01 07 07.0   +04 05 28     3.258    2.527   37.1   14.0   244   14.9 
2025-05-16 00:00 UT   01 08 40.9   +04 14 39     3.250    2.526   37.7   14.2   244   14.9 
2025-05-17 00:00 UT   01 10 14.6   +04 23 47     3.242    2.526   38.2   14.3   244   14.9 
2025-05-18 00:00 UT   01 11 48.2   +04 32 52     3.234    2.526   38.8   14.5   244   14.9 
2025-05-19 00:00 UT   01 13 21.7   +04 41 54     3.225    2.525   39.3   14.7   244   14.9 
2025-05-20 00:00 UT   01 14 55.0   +04 50 54     3.217    2.525   39.9   14.9   244   14.9 
2025-05-21 00:00 UT   01 16 28.2   +04 59 51     3.208    2.524   40.4   15.1   245   14.9 
2025-05-22 00:00 UT   01 18 01.3   +05 08 46     3.200    2.524   40.9   15.2   245   14.9 
2025-05-23 00:00 UT   01 19 34.2   +05 17 37     3.191    2.524   41.5   15.4   245   14.9 
2025-05-24 00:00 UT   01 21 07.0   +05 26 26     3.183    2.523   42.0   15.6   245   14.9 
2025-05-25 00:00 UT   01 22 39.6   +05 35 12     3.174    2.523   42.6   15.8   245   14.9 
2025-05-26 00:00 UT   01 24 12.1   +05 43 54     3.165    2.523   43.1   15.9   245   14.9 
2025-05-27 00:00 UT   01 25 44.4   +05 52 34     3.156    2.522   43.7   16.1   245   14.9 
2025-05-28 00:00 UT   01 27 16.5   +06 01 10     3.147    2.522   44.2   16.3   245   14.9 
2025-05-29 00:00 UT   01 28 48.4   +06 09 44     3.137    2.521   44.8   16.5   245   14.9 


    Terminology:
            
    delta:  distance between minor planet and earth in AU
    radius: distance between minor planet and sun in AU
    magn:   magnitude (brightness) estimate    
    ra:     right ascension in hours (24h = 360deg)
    dec:    declination in degrees
    elong:  elongation in degrees (angle sun-earth-minor planet)    
    phase:  phase angle in degrees (angle sun-minor planet-earth)        
    AU:     Astronomical Unit (mean distance between earth and sun: 149597870.7 km
    

Orbital elements provided by the MPC (Minor Planet Center).
Calculations by a modified version of AAPlus, a C# implementation of the AA+ project by PJ Naughter from the algorithms presented in the book "Astronomical Algorithms" by Jean Meeus.
NGC2000 dso catalog and star labels from VizieR as provided by the Strasbourg astronomical Data Center.
Tycho2 catalog from the ESO archive.